ASIASAT 7

Last updated on Jan. 17, 2021, 6:29 a.m. UTC

1 37933U 11069A   21016.87312486 -.00000338  00000-0  00000-0 0  9996
2 37933   0.0173  88.8924 0001032 175.6066 271.8127  1.00274010 25037
UTC
Height (km)
Latitude
Longitude
Inclination
Orbital Period
UTC large
Height (km)
Speed (km/s)
/
Latitude / Longitude
Inclination (degrees)
Orbital Period (minutes)
Azimuth
Elevation
Range (km)
Doppler Factor
iOS Compass Heading
iOS Angle

Next 30 passes for location: Hong Kong

Rise time Rise Azimuth (degrees) Set time Set Azimuth (degrees) Duration Max altitude (degrees)

No matching passes for this satellites